RH
99 99 99 100 100 100 100 99 89 61 46 38 29 23 17 16 16 23 30 7 10 10 9 6 7 9 10 27 51 62 91 73 45 33 29 22 24 22 23 36 33 32 48 45 51
100 100 99 100 100 100 100 91 76 52 34 32 29 23 18 24 33 36 4 9 12 10 7 5 8 8 12 36 46 64 73 60 38 29 28 24 25 27 31 39 44 46 44 44 41
100 100 99 99 99 100 95 85 72 43 32 30 29 25 20 28 54 17 7 5 9 9 7 7 7 8 12 20 30 41 55 39 31 26 23 24 25 25 41 48 44 56 52 48 46
99 98 94 84 81 83 72 56 42 36 33 30 25 22 20 41 20 12 8 10 10 8 7 8 8 11 14 26 28 34 30 30 34 21 20 24 24 31 26 35 38 47 48 49 49
87 87 85 81 67 65 64 49 37 32 32 30 22 22 30 48 30 11 6 6 4 6 10 8 10 12 15 17 28 27 22 18 19 19 21 24 32 32 31 39 36 43 44 47 47
83 82 82 78 66 55 51 45 36 31 31 30 23 28 56 35 9 8 8 21 11 13 10 8 10 10 13 14 16 16 16 16 18 19 21 31 32 27 30 41 42 42 45 45 46
85 78 78 72 64 55 45 40 34 31 30 23 24 50 47 33 11 6 6 7 7 10 12 8 8 10 14 17 13 14 16 16 18 19 27 29 43 42 36 38 47 46 44 44 45
94 86 76 66 55 47 41 37 32 30 23 22 27 62 51 11 11 10 10 6 6 6 8 8 8 11 14 14 13 15 16 24 18 18 18 19 59 51 41 30 59 63 54 43 51
100 94 79 67 55 43 36 32 32 28 24 26 41 53 34 12 11 10 8 6 6 5 5 6 7 11 15 19 20 19 24 22 20 16 15 22 48 43 36 47 58 73 68 43 48
100 100 83 64 55 46 34 29 35 33 42 58 48 40 33 19 9 8 8 6 5 6 6 7 10 14 17 22 27 27 21 18 24 20 18 20 32 34 36 43 61 59 64 53 53
100 96 82 65 53 57 45 36 51 52 38 32 25 26 11 14 9 6 6 5 5 5 10 9 15 20 17 17 15 15 20 19 19 17 19 23 22 37 44 44 38 56 65 70 51
99 100 81 59 46 53 67 62 31 21 26 27 20 16 11 10 8 6 5 8 7 8 8 10 14 12 14 14 13 15 18 23 20 16 19 18 20 33 39 39 44 45 61 60 63
99 100 89 56 41 46 50 39 22 24 26 19 16 20 13 9 10 8 6 8 8 8 9 11 10 9 12 13 15 13 16 17 18 17 16 20 25 35 40 39 34 50 46 72 85
99 99 100 48 56 57 46 26 26 23 37 18 14 14 11 9 11 7 5 7 8 8 8 9 7 8 11 12 14 18 13 11 15 18 24 16 34 41 42 36 31 43 49 62 66
98 99 99 99 84 63 31 27 19 20 46 10 9 8 8 10 8 8 5 6 8 8 8 9 7 7 9 11 12 14 11 14 14 19 18 31 45 47 31 30 35 44 50 45 32
99 100 98 70 88 33 26 27 23 37 39 9 9 9 9 8 8 7 6 6 6 8 8 7 6 5 6 8 11 11 12 14 15 18 48 36 40 64 43 28 31 34 45 40 42
99 92 100 94 56 40 35 31 41 41 12 12 12 8 8 9 8 9 7 8 10 11 12 9 7 6 5 7 11 12 16 31 29 55 55 38 41 50 39 32 29 28 40 46 49
75 77 70 61 40 48 43 41 50 18 17 9 10 9 9 8 10 9 8 9 8 9 11 13 12 8 6 7 12 15 15 30 30 58 59 43 48 34 22 16 23 22 24 34 41
58 63 66 39 36 50 48 49 36 21 12 13 10 11 10 8 9 10 9 9 7 7 11 12 12 6 6 7 10 15 17 13 16 16 26 50 42 34 20 20 16 18 27 33 36
80 63 47 39 36 46 48 47 29 18 17 14 18 13 14 10 10 11 11 8 7 6 7 9 14 8 6 7 10 12 12 18 21 23 29 40 48 46 29 31 19 12 10 32 37
76 55 33 36 36 44 50 38 25 17 17 17 18 17 10 10 9 10 12 9 6 6 6 7 8 8 7 10 12 13 15 14 17 22 28 46 48 34 30 28 22 21 26 34 38
51 56 27 30 44 40 39 27 23 20 15 14 14 15 15 12 9 10 11 9 6 5 7 6 7 13 11 8 8 11 12 13 23 23 27 30 32 19 28 32 29 26 25 32 39
62 45 25 25 44 36 27 23 18 17 17 18 18 12 11 15 15 9 8 6 5 6 9 7 12 14 14 9 8 10 9 9 10 13 20 27 33 38 38 41 36 34 29 39 41
66 78 46 32 30 33 35 35 23 23 25 20 16 14 18 18 17 12 9 6 5 7 16 9 8 13 18 16 10 11 10 9 10 16 19 18 31 30 41 47 40 28 22 39 42
58 89 72 78 59 33 41 33 39 43 29 19 17 19 18 26 24 12 10 8 6 23 7 7 12 10 11 9 7 8 9 9 11 12 16 23 24 24 44 45 37 28 24 41 45
59 80 81 88 71 74 36 36 37 23 36 15 18 13 17 41 42 43 36 20 13 11 10 8 14 12 16 11 9 9 8 8 9 9 12 12 13 24 30 36 39 34 36 42 42
41 38 42 50 54 74 68 55 53 39 22 13 12 18 32 38 34 28 40 36 37 21 13 12 15 17 20 15 13 15 11 10 9 8 9 15 14 30 28 30 27 31 37 42 43
Wind_Speed
15 15 15 16 15 16 17 17 17 17 16 16 16 15 15 17 18 11 7 13 7 10 15 23 24 25 27 8 8 5 4 5 2 0 5 5 9 7 11 16 5 5 12 18 34
15 15 15 16 16 16 16 17 18 17 14 14 15 14 14 15 16 14 26 16 18 18 16 15 13 19 7 14 10 5 5 6 10 10 8 6 7 11 8 18 17 15 18 19 27
15 16 16 16 17 17 16 17 18 17 14 14 15 13 11 12 5 8 8 23 21 17 17 16 19 10 8 3 7 6 6 9 10 10 9 7 14 11 12 4 17 21 19 14 12
15 16 17 18 19 18 18 18 18 16 14 14 14 13 9 4 2 1 1 6 16 13 15 9 7 5 7 5 6 6 11 16 14 5 7 9 11 12 9 7 19 20 19 16 11
16 17 18 19 20 20 19 19 17 15 13 12 13 11 4 3 9 10 2 3 7 8 10 8 11 13 15 1 11 7 6 6 6 6 9 13 11 7 8 20 21 22 17 17 12
18 19 19 20 21 21 21 20 17 14 12 11 9 4 2 5 13 7 3 5 5 10 8 12 8 13 13 4 2 3 6 6 8 6 8 17 9 3 4 12 13 18 18 16 15
19 20 21 21 22 23 21 20 16 12 11 10 6 1 5 15 7 5 7 11 12 16 10 18 22 10 11 9 5 5 1 6 8 11 14 19 4 5 5 14 11 5 18 17 16
19 20 21 22 24 23 21 19 12 10 8 8 1 2 8 15 20 23 14 16 16 18 21 20 26 11 6 9 2 3 5 4 8 9 6 7 5 12 11 1 14 18 13 18 16
20 21 22 23 25 24 22 17 10 7 5 3 1 4 9 8 12 19 15 15 17 15 17 18 10 5 9 9 3 4 7 7 3 7 4 6 5 16 5 13 15 2 19 15 16
21 22 23 24 25 25 23 15 11 7 5 4 9 5 8 10 14 20 18 22 8 8 8 7 1 5 7 5 6 7 6 7 7 8 8 7 9 3 11 15 20 20 19 7 4
22 23 24 25 25 25 27 6 0 1 7 10 8 8 9 19 14 12 22 19 7 5 8 9 4 8 19 17 15 9 5 6 12 7 6 8 8 9 8 3 6 6 7 13 23
22 24 25 26 25 25 18 5 11 14 7 19 21 20 26 23 3 7 22 8 8 9 9 6 9 16 15 16 15 10 5 9 3 6 6 5 2 11 15 7 13 8 9 19 9
23 23 27 27 25 14 9 16 17 19 4 9 16 9 13 10 7 10 10 9 6 9 10 9 12 18 17 18 12 0 6 1 2 4 4 5 5 5 10 6 1 5 12 13 16
23 24 25 29 8 11 8 10 7 10 4 7 9 10 10 7 10 12 17 10 7 12 12 10 17 16 16 15 9 4 9 8 4 4 3 3 7 5 5 6 5 4 7 18 18
23 24 23 19 18 7 13 15 4 8 4 9 17 14 11 11 3 14 22 10 13 9 7 11 11 10 11 14 7 9 8 4 5 5 2 13 6 8 2 9 6 1 4 8 6
25 24 25 7 9 16 15 13 8 2 8 3 8 10 13 13 17 7 11 10 8 10 8 12 10 8 8 11 8 6 7 2 4 3 4 2 3 7 4 9 5 5 8 10 1
30 31 22 10 6 5 8 7 3 5 7 12 18 13 17 13 17 11 14 14 12 5 7 9 12 9 9 7 5 5 4 4 4 5 4 2 5 8 11 14 11 11 16 12 10
38 20 15 20 15 10 11 3 6 9 13 5 10 13 17 13 15 17 12 11 12 11 5 7 8 9 9 11 9 9 8 5 6 4 5 7 3 6 15 9 11 17 15 18 14
26 7 4 10 16 10 3 6 5 7 12 15 11 12 12 14 9 13 12 13 15 16 9 8 9 9 11 7 3 6 5 11 3 5 3 5 4 8 17 13 7 11 15 20 18
12 6 13 10 15 9 3 8 8 13 23 16 9 14 14 17 15 9 11 13 13 18 13 8 4 9 12 9 7 8 6 2 2 4 5 4 4 6 6 8 8 3 1 14 17
2 3 13 17 16 3 5 6 14 19 21 23 17 12 10 14 15 11 10 11 18 14 14 12 4 16 6 6 9 3 4 3 1 3 3 5 6 9 3 6 7 13 10 19 17
6 3 19 20 5 4 8 7 8 22 24 14 8 14 9 6 15 16 14 15 17 18 12 11 4 5 9 9 12 9 10 9 5 8 4 5 3 2 5 5 3 15 18 9 11
3 4 11 16 4 9 11 17 21 20 17 10 8 9 15 12 6 14 17 16 14 18 9 8 4 3 10 3 5 9 8 6 6 4 6 3 4 5 7 13 11 16 12 2 13
3 3 3 4 9 13 15 16 16 10 10 16 11 9 9 14 6 13 10 7 9 7 7 3 7 7 7 7 5 7 9 10 6 2 5 5 6 5 7 15 14 15 16 12 14
3 1 3 4 7 10 12 13 10 7 6 17 8 4 14 10 12 5 8 4 7 8 4 3 4 6 9 9 8 7 9 12 10 10 6 8 7 10 13 17 17 14 9 12 11
3 2 0 5 14 19 14 9 10 11 15 10 9 12 8 5 7 13 17 7 9 2 6 2 4 2 7 8 10 11 12 7 14 13 8 8 6 12 14 17 13 15 15 13 14
11 11 3 8 4 7 6 7 17 18 12 12 15 7 8 5 8 10 6 3 2 4 7 5 5 2 6 8 10 8 6 6 6 5 3 6 10 12 9 7 10 9 12 14 15
Wind_Direction
359 357 354 351 348 343 339 335 330 329 332 334 335 329 319 315 309 298 244 239 263 300 306 307 308 296 263 121 115 84 132 243 336 65 98 119 94 110 94 102 95 111 138 162 156
354 353 351 348 344 341 337 332 329 328 330 333 333 327 321 331 321 260 258 243 256 283 298 302 316 323 329 130 143 143 99 282 252 293 130 179 129 110 136 91 87 94 115 154 151
351 348 345 342 342 338 335 331 328 327 330 328 328 325 327 340 278 247 268 231 250 259 276 291 287 291 294 174 158 164 157 225 270 242 163 179 120 130 135 99 140 140 139 154 170
347 344 342 340 340 336 335 334 331 329 325 322 324 320 328 359 226 30 73 225 239 252 270 281 277 285 273 177 148 130 246 174 242 172 119 105 91 54 48 131 140 136 144 155 184
345 343 342 339 338 336 334 335 329 324 319 317 320 325 359 253 252 258 259 225 237 236 240 259 278 286 283 186 166 184 186 127 91 327 144 97 44 111 47 123 132 136 149 163 175
344 341 338 337 336 336 332 331 323 317 311 309 311 331 333 250 258 223 252 206 224 223 257 251 264 283 290 269 53 345 192 167 166 204 110 116 114 216 138 80 145 144 159 173 177
344 339 338 336 335 334 330 327 318 311 304 299 295 354 262 239 258 217 222 243 250 235 245 259 263 276 305 323 129 314 209 258 177 191 124 109 11 227 236 151 121 220 170 179 183
339 338 335 335 334 332 328 324 311 305 298 286 220 173 253 263 270 274 269 252 244 235 249 269 276 279 298 301 219 213 279 242 234 192 171 144 227 252 248 59 63 347 291 184 185
338 336 334 334 333 330 323 318 301 298 300 272 243 204 263 277 207 236 223 240 238 241 258 256 289 272 309 291 321 221 234 249 211 162 227 145 216 236 208 98 93 20 278 190 184
336 334 332 331 333 330 321 314 292 288 284 250 270 298 254 234 205 225 225 239 228 212 240 256 343 285 284 274 234 228 234 257 200 210 211 229 231 149 169 141 156 190 235 224 169
334 331 331 331 329 331 332 353 100 174 243 209 195 226 288 226 230 191 206 226 216 207 207 225 202 228 239 243 238 249 194 191 273 144 170 232 261 146 148 231 231 141 256 231 193
332 330 328 328 324 319 314 257 265 339 288 223 253 240 259 274 170 206 195 197 178 203 210 234 219 247 252 261 267 224 234 214 269 201 155 206 264 171 173 189 232 131 282 242 27
332 329 327 325 324 309 242 243 274 319 275 270 226 232 245 245 221 206 179 207 193 215 208 210 218 237 256 267 270 259 268 195 200 162 287 254 267 101 196 195 133 131 129 124 121
328 328 329 329 316 320 256 284 270 267 293 256 202 222 240 218 242 245 196 189 223 208 227 219 244 226 238 255 258 256 253 277 217 61 291 7 261 24 328 273 160 223 125 143 160
325 325 324 324 299 285 309 343 213 216 293 201 195 177 186 205 223 218 186 215 227 199 184 240 230 233 227 247 205 231 271 68 23 342 353 355 44 283 299 307 309 64 69 223 152
322 322 321 352 246 269 295 324 293 243 246 198 123 171 183 214 231 230 166 200 243 254 238 230 242 225 225 240 231 237 281 208 190 167 50 269 102 277 275 236 257 161 191 222 122
322 318 301 263 228 282 270 289 196 235 289 135 161 173 191 198 222 226 180 190 217 202 252 253 247 253 232 273 239 193 324 340 336 37 207 327 33 258 263 256 237 232 195 209 202
325 314 286 238 240 300 284 231 243 228 248 322 167 185 188 199 216 228 176 188 226 239 212 211 262 242 238 209 213 195 190 163 235 178 239 92 228 279 294 312 204 231 198 205 202
332 333 244 260 214 245 276 227 219 263 342 305 182 175 193 207 212 219 175 198 205 224 211 190 239 227 239 244 161 271 202 214 245 293 104 190 286 305 267 305 191 173 163 152 144
322 289 239 200 175 218 245 250 271 283 304 313 315 176 188 211 204 221 172 195 211 215 228 263 302 222 217 212 208 193 240 341 316 212 267 170 167 252 287 305 301 154 327 131 136
205 255 122 156 165 238 233 253 266 272 272 295 349 319 196 195 206 224 189 217 199 220 214 244 217 279 197 179 191 245 298 313 198 171 191 153 242 193 235 349 10 11 109 138 146
298 269 149 158 191 207 237 248 261 283 288 289 276 286 300 229 205 208 211 199 192 207 213 214 234 248 238 215 184 179 200 201 152 284 223 156 255 101 104 111 50 38 10 121 137
287 275 172 185 240 235 238 242 257 275 291 306 235 266 300 304 226 199 220 211 212 194 199 203 248 281 320 328 161 179 217 227 215 230 254 146 196 72 89 59 60 65 317 253 139
279 330 318 209 266 290 299 292 247 319 311 282 309 339 321 299 282 198 205 219 182 136 101 111 184 181 213 216 190 203 201 213 209 215 244 241 169 164 121 119 132 167 226 177 153
237 191 161 300 303 271 262 304 323 340 275 275 312 275 283 307 348 139 183 122 110 151 99 111 213 221 263 289 304 285 211 202 205 235 203 152 166 184 178 175 196 204 221 141 149
295 92 65 274 276 278 241 217 242 271 231 232 259 268 309 46 358 333 358 25 173 141 164 208 240 268 282 295 294 292 295 234 207 218 232 240 239 179 208 203 211 208 157 157 165
356 353 269 258 316 6 349 330 317 248 275 226 237 237 88 48 281 290 125 5 251 110 176 192 154 208 268 287 284 286 271 292 292 283 204 221 228 152 206 193 184 166 160 167 169